Погода в Астреево

Россия / Калужская область     55°00′43″N   36°11′25″E
темп.,
°C
ветер,
м/с
пор.,
м/с
влажн.,
%
обл.,
%
осадки,
мм/ч
давл.,
гПа
погр.,
м
7 мая, пт
пт700:00+5юз41193100 0.0 1009333
03:00+4юз3795100 0.0 1010199
06:00+4юз4992100 0.0 1010304
09:00+8зюз57675 0.0 1011795
12:00+12зюз5843100 0.0 10122634
15:00+13юз684282 0.0 10112293
18:00+12ююз5855100 0.0 1011698
21:00+9ююв5126399 0.0 1011253
8 мая, сб
сб800:00+8ююв51270100 0.0 1011303
03:00+7ююв71489100 1.8 1009832
06:00+8ююв81593100 4.8 1006858
09:00+8ююв51195100 6.9 1005758
12:00+9ю4895100 1.1 1004521
15:00+9юз1297100 3.8 1003220
18:00+8с4994100 1.4 1003417
21:00+7ссз71195100 4.0 1004812
9 мая, вс
вс900:00+5ссз71395100 5.3 1007935
03:00+4сз61289100 5.7 1010934
06:00+4сз61090100 0.1 1013915
09:00+4сз6983100 0.1 10161013
12:00+7сз696794 0.1 10181431
15:00+10сз785099 0.1 10191996
18:00+10сз475641 0.0 10211122
21:00+5зсз23725 0.0 102424
10 мая, пн
пн1000:00+3сз33775 0.0 102634
03:00+2ссз22750 0.0 102821
06:00+3сз11736 0.0 103010
09:00+10юз11555 0.0 1031334
12:00+13зюз22443 0.0 10301392
15:00+15зюз22425 0.0 10291613
18:00+15ю01505 0.0 10291137
21:00+9юв11630 0.0 103010
11 мая, вт
вт1100:00+7вюв11680 0.0 103110
03:00+6всв11734 0.0 103110
06:00+7всв22785 0.0 103225
09:00+13в355937 0.0 1032452
12:00+17в46525 0.0 10311118
15:00+18в455296 0.0 10291339
18:00+16в366697 0.0 1029373
21:00+11в2281100 0.0 102919